Location: Golden Pond Observatory
(36.7773°N, 88.0631°W)
Time: 11:09:46
(UTC-06:00)

Hubble Space Telescope - Pass Details

Date: 24 November 2019
Orbit: 536 x 540 km, 28.5° (Epoch: 11 December)

Event Time Altitude Azimuth Distance (km) Brightness Sun altitude
Rises 19:11:28 0° 256° (WSW) 2,670 5.5 -30.4°
Reaches altitude 10° 19:14:15 10° 238° (WSW) 1,779 4.1 -30.9°
Enters shadow 19:15:37 15° 220° (SW) 1,468 3.4 -31.2°
